Helicity
72 87 97 107 105 96 80 78 101 103 87 68 50 37 29 29 36 81 94 90 119 110 57 56 55 7 54 108 92 44 89 77 119 71 102 104 73 52 34 92 158 179 167 150 79 25 -4 73 135 55 40 90 129 127
125 134 128 104 86 73 78 95 102 101 83 64 49 28 43 20 -1 21 93 54 89 100 103 71 30 21 66 47 91 148 114 107 121 152 128 119 87 103 116 102 75 75 171 124 141 101 77 108 73 107 96 117 84 163
59 73 73 72 65 61 64 87 102 83 67 48 37 44 23 -5 -5 44 53 55 75 94 19 10 -4 54 53 122 88 108 159 140 181 233 235 173 161 145 122 79 163 157 181 154 142 83 94 91 147 149 136 149 150 168
83 62 78 79 61 45 68 87 83 85 64 51 31 21 30 23 21 45 39 33 50 59 55 -1 41 50 69 92 156 149 242 291 302 296 288 205 190 118 92 86 94 116 158 153 124 82 102 105 116 133 188 208 220 184
70 73 54 46 62 85 116 122 103 71 59 29 11 30 26 12 19 50 35 38 58 79 23 31 67 93 75 121 191 191 188 197 220 293 233 235 205 146 139 122 96 90 82 158 128 101 110 88 132 177 214 202 185 181
70 76 83 75 86 79 66 66 11 69 45 20 8 26 27 35 28 38 45 82 72 83 63 63 59 89 96 57 51 15 79 122 47 61 131 160 131 85 63 33 83 57 50 69 34 104 102 141 246 197 220 182 151 160
33 32 29 31 15 10 66 57 63 46 34 19 22 39 25 -15 46 71 78 84 90 113 149 78 84 111 149 89 86 73 86 56 63 107 70 74 83 89 29 36 -3 36 35 56 119 200 170 161 147 169 184 159 155 156
39 18 27 21 -12 29 53 61 55 32 16 6 43 51 12 9 1 94 118 135 161 203 164 111 112 202 164 117 89 85 93 83 90 57 74 77 80 43 42 35 63 77 111 120 118 83 131 197 225 208 215 193 176 131
19 22 40 14 68 64 62 47 22 6 15 49 65 38 31 42 82 173 193 126 87 106 121 123 143 203 130 106 85 80 76 64 59 63 64 50 77 51 13 6 50 98 76 109 142 137 157 198 188 176 157 123 134 114
23 35 21 51 54 53 42 31 32 35 82 55 112 60 44 87 162 152 187 141 108 108 94 94 167 157 132 126 111 93 80 67 36 43 55 52 56 47 47 27 72 90 128 189 199 141 146 161 149 106 70 91 107 117
31 21 26 39 51 52 40 38 27 60 167 174 101 70 159 278 277 180 126 131 119 85 78 106 108 120 150 125 113 79 40 62 28 36 44 32 20 27 76 94 120 106 124 137 122 141 149 183 108 93 76 94 112 116
20 37 43 42 61 44 43 49 72 149 144 105 90 282 336 311 194 86 115 98 87 66 90 117 149 160 138 115 91 86 62 59 34 39 44 8 14 39 49 91 111 99 105 106 77 86 134 150 113 98 96 104 100 97
48 75 77 83 79 56 37 41 51 112 97 178 135 138 189 118 142 85 101 92 64 88 100 121 141 114 98 86 74 65 62 39 37 47 27 22 36 41 51 88 99 90 90 96 96 107 116 114 102 103 100 98 114 102
75 93 82 71 72 72 63 65 96 96 157 157 113 140 151 164 125 72 101 96 68 85 97 109 139 104 95 94 56 74 65 58 56 44 31 34 63 59 61 84 93 57 64 83 84 89 84 84 79 80 94 113 125 95
83 98 94 71 64 66 68 74 134 158 150 132 100 99 110 56 69 78 91 108 117 126 110 130 117 97 102 82 79 59 51 48 23 26 26 55 71 51 50 60 68 67 60 72 74 77 72 76 77 77 69 82 107 125
123 161 137 100 99 97 84 89 122 162 157 132 103 95 111 90 109 111 156 172 153 136 108 113 106 107 99 66 68 64 51 32 25 23 36 79 82 79 70 63 66 72 80 82 77 70 73 65 64 74 90 72 87 107
70 119 131 131 110 100 84 118 135 134 105 117 111 70 87 104 115 137 184 174 157 130 142 130 123 103 74 85 77 58 49 43 34 23 33 66 91 115 108 109 95 96 95 91 93 97 100 108 117 118 88 69 90 100
78 87 103 117 164 144 119 82 60 50 48 75 74 68 63 71 91 105 133 160 112 117 119 98 73 109 106 83 64 49 38 33 21 24 38 68 82 96 102 99 101 92 93 96 100 103 101 108 100 97 111 110 118 114
61 62 78 86 78 64 66 68 49 32 52 61 66 75 69 80 100 112 103 109 85 77 69 90 105 89 69 64 60 71 59 42 35 39 42 39 53 72 68 69 75 84 85 86 84 85 84 88 82 90 103 111 109 116
81 83 65 60 27 28 24 32 30 31 42 43 52 71 85 95 110 123 131 125 129 125 108 90 68 54 57 72 63 64 58 45 35 48 52 55 49 48 58 53 55 53 66 78 87 81 85 88 86 88 93 94 104 99
45 68 54 34 37 -2 -11 -11 3 3 -9 9 2 21 45 65 92 107 119 89 43 90 87 80 62 36 54 59 79 64 75 73 71 76 80 73 61 54 42 32 27 31 43 54 65 70 66 66 73 81 90 87 92 103
59 47 -22 10 -12 -9 -4 36 -1 7 -8 -12 -15 -15 -28 -33 -27 -14 -2 1 13 40 51 49 41 44 45 51 54 67 93 103 94 78 81 72 75 62 45 25 32 30 39 36 44 48 58 73 80 87 92 95 109 113
27 26 21 36 2 19 14 55 42 45 25 19 32 29 30 27 22 17 25 24 21 31 29 28 39 45 41 42 45 61 72 64 62 78 85 80 67 46 32 18 12 24 35 55 68 71 73 80 86 92 96 100 100 106
38 34 40 37 41 25 60 67 62 63 69 83 70 59 61 47 47 51 45 32 31 37 62 79 68 46 53 65 56 51 68 67 71 71 88 90 91 93 91 83 75 77 74 79 79 77 76 82 89 99 99 104 105 101
68 67 64 64 63 74 82 84 96 97 96 104 114 121 100 100 85 69 50 41 44 45 57 70 68 64 39 32 43 52 59 78 80 78 87 86 90 93 95 105 123 145 151 110 87 76 78 86 89 83 85 97 93 91
101 92 100 76 75 78 60 79 80 84 98 111 102 110 112 103 92 62 53 36 25 29 44 61 59 57 50 44 52 61 75 76 73 50 61 71 83 85 99 106 109 130 147 127 111 102 98 93 91 94 86 80 81 106
101 100 92 70 79 84 98 92 90 94 94 83 76 101 98 80 42 39 55 75 61 46 35 35 33 30 33 37 36 40 42 41 34 40 66 89 98 101 100 98 111 107 114 108 101 92 86 86 85 84 87 86 82 93
50 55 67 60 78 80 79 84 84 79 85 85 93 90 67 58 60 88 104 75 72 53 57 55 48 41 37 32 34 50 43 61 41 64 63 77 84 97 109 95 81 83 72 64 62 60 58 54 56 65 76 92 116 106
7 32 42 27 54 68 63 70 73 86 92 92 93 86 98 117 104 101 79 86 88 88 84 79 86 76 66 56 59 67 84 106 53 72 87 83 87 79 104 95 87 77 67 65 64 59 44 45 59 77 103 116 144 186
37 48 51 31 27 18 38 64 69 72 97 112 108 103 110 100 112 113 105 116 116 106 99 90 88 93 89 86 77 93 112 119 125 99 90 84 79 88 85 82 78 71 63 59 67 75 96 108 130 141 162 171 189 228
36 47 44 41 29 36 43 81 82 78 74 84 99 74 63 65 103 128 131 120 116 118 116 120 122 137 142 145 133 115 118 136 145 143 128 111 99 89 85 76 62 56 58 67 80 96 116 162 188 209 230 246 251 254
53 59 61 55 53 64 86 75 78 89 90 97 93 94 92 98 85 88 128 131 122 126 123 126 130 122 135 124 99 91 106 113 125 128 140 125 111 97 85 71 60 57 67 89 105 116 143 167 198 219 242 263 263 261
50 50 55 68 81 77 73 89 98 104 133 118 109 115 124 120 109 125 119 108 99 93 93 82 69 76 90 102 103 104 111 106 113 126 120 112 107 95 79 75 70 74 88 100 115 125 153 173 182 192 201 207 212 211
Wind_Speed
58 56 50 47 44 42 38 34 31 34 35 36 39 40 41 45 44 42 48 42 49 63 64 50 48 58 46 26 32 33 18 34 28 16 42 44 57 62 59 54 54 46 42 44 50 62 64 21 16 24 31 24 11 7
51 48 44 43 39 38 34 31 32 29 31 32 35 39 39 43 43 42 50 44 45 60 52 46 62 66 50 41 37 41 45 29 23 32 48 41 55 50 53 57 46 54 30 43 36 42 32 23 30 27 20 16 10 9
45 42 37 35 33 29 27 29 30 30 34 36 36 33 36 47 51 46 45 43 43 53 64 73 64 48 53 35 44 35 41 33 34 37 33 39 44 40 48 58 42 47 38 41 35 32 30 29 29 25 20 14 11 12
37 35 33 30 25 24 27 28 26 29 32 37 39 46 57 64 65 54 50 45 47 38 57 56 48 55 50 32 25 19 22 28 27 32 39 41 41 40 50 50 55 45 30 32 39 35 31 31 27 16 13 12 14 15
28 27 28 29 26 26 33 32 35 32 37 47 52 61 65 57 51 52 58 60 52 44 48 54 44 44 41 29 25 19 25 33 31 33 33 34 37 38 46 44 46 33 32 24 36 18 26 24 14 5 7 10 13 16
24 22 23 24 36 43 49 44 66 38 41 51 57 60 51 43 41 45 49 42 28 32 44 44 39 36 27 9 8 4 3 10 15 22 34 35 33 38 44 48 43 29 24 27 32 14 34 14 5 7 8 13 16 18
24 30 45 52 62 64 36 26 27 33 42 50 52 54 45 40 46 46 40 34 22 34 41 36 32 27 24 18 19 15 15 17 27 30 40 38 38 36 40 42 29 23 26 27 13 12 23 12 11 8 13 15 17 18
23 43 54 56 58 41 22 15 21 35 44 51 37 40 43 45 44 45 45 34 33 34 35 34 33 30 26 22 16 22 18 23 28 27 31 34 26 28 40 29 17 19 18 15 22 31 18 7 9 10 14 18 18 18
25 36 44 51 25 17 12 16 35 48 46 32 34 39 40 37 37 33 35 35 29 31 34 33 33 36 27 22 21 23 28 33 35 36 34 32 38 45 41 33 19 10 23 11 20 18 11 9 12 15 17 18 18 17
20 35 24 22 17 10 19 37 40 34 24 36 40 36 38 37 32 27 24 30 35 33 30 28 30 31 27 27 28 30 35 35 36 39 38 46 57 52 46 37 13 4 11 4 10 13 7 6 13 18 20 16 16 17
30 27 17 13 9 11 22 24 20 34 35 36 39 36 36 34 28 28 30 35 35 31 31 30 30 24 30 31 32 32 34 35 40 39 38 40 44 45 43 26 11 8 5 9 21 14 3 11 17 17 15 13 14 16
39 18 14 14 9 14 16 18 24 34 32 31 28 28 30 27 28 32 36 34 33 34 31 28 25 27 28 27 29 33 33 33 36 34 34 39 39 42 28 18 11 9 9 12 13 9 3 7 11 11 12 11 13 15
23 23 16 9 6 10 16 15 13 24 29 29 28 29 31 30 36 40 43 38 35 32 26 23 24 25 25 25 27 30 31 33 31 32 34 35 44 39 19 12 11 16 14 13 13 10 4 3 4 6 8 8 11 12
20 15 9 7 3 10 17 20 27 28 29 28 30 30 32 35 36 35 36 35 31 27 13 14 22 28 26 27 29 31 33 33 36 38 40 43 47 37 16 8 7 9 10 12 12 8 4 3 3 5 5 7 8 9
19 12 5 3 12 17 20 22 29 27 26 27 28 30 32 31 30 30 30 30 24 22 20 21 25 26 27 28 31 29 32 36 36 39 42 48 44 26 12 7 8 7 8 10 11 9 9 11 10 9 7 5 6 6
10 3 13 19 22 24 27 25 24 26 25 26 25 25 29 29 29 26 25 21 23 21 22 26 29 29 31 30 33 34 32 38 38 39 44 44 36 27 16 9 9 9 9 10 12 12 13 13 13 14 14 10 8 6
13 25 24 23 27 23 23 24 23 22 25 27 26 24 23 25 28 27 25 26 28 25 30 30 32 34 31 34 36 36 38 38 38 39 40 38 34 29 22 16 15 16 16 16 18 20 22 23 21 21 20 17 16 15
23 24 18 20 25 25 22 20 20 21 21 21 22 23 23 23 25 25 25 27 26 26 29 32 29 34 36 37 38 38 35 34 37 39 37 36 32 28 26 21 21 22 23 24 24 24 25 25 27 28 28 24 23 22
18 19 23 22 22 23 23 25 25 25 24 24 25 26 25 24 24 26 26 26 23 24 24 30 33 37 39 38 38 36 36 37 37 36 34 33 31 29 27 26 25 26 26 28 27 28 29 30 32 31 29 29 31 30
25 9 16 18 21 20 21 21 23 20 22 23 24 25 24 26 28 26 25 26 26 28 30 34 36 37 35 36 36 35 37 37 34 33 33 32 31 30 29 29 29 28 29 29 30 30 30 33 35 35 35 35 36 36
16 17 17 23 21 22 21 21 20 17 16 17 18 19 20 21 21 22 25 28 25 29 29 28 29 31 30 30 32 33 35 35 35 35 36 35 33 32 31 32 31 33 36 35 37 38 38 39 40 37 37 39 39 41
25 19 37 23 30 27 24 22 18 19 19 17 20 20 19 20 22 25 27 26 27 29 29 31 31 32 32 32 34 36 38 37 37 36 36 38 40 39 39 38 38 40 40 39 39 42 43 43 41 39 39 41 41 42
26 26 25 26 28 26 22 25 22 24 21 21 21 21 23 24 26 27 26 27 26 30 32 34 34 32 32 34 37 40 42 42 43 44 47 47 45 42 43 43 41 43 44 45 43 45 47 45 43 43 41 41 42 42
33 31 31 30 30 27 31 29 29 27 27 28 29 29 29 30 32 31 32 33 33 35 37 40 40 40 40 43 46 48 49 49 49 48 50 50 50 50 50 48 46 46 47 48 47 47 48 49 48 47 45 44 42 42
32 36 34 34 35 33 33 34 35 34 35 34 34 35 35 36 38 40 41 40 39 41 43 45 45 45 46 47 49 49 47 48 50 49 49 48 49 46 43 42 43 46 49 47 49 50 50 49 49 50 50 48 45 43
35 39 37 39 38 38 38 39 38 37 37 37 37 34 35 37 43 46 41 40 41 44 47 50 50 50 50 50 51 51 52 50 49 43 45 45 46 45 46 47 47 49 51 50 50 51 50 50 52 54 55 53 49 45
33 34 35 35 36 37 39 39 36 38 39 37 35 34 36 42 44 39 34 39 40 43 43 45 47 47 48 48 48 49 50 48 43 41 36 39 41 43 44 46 49 50 52 52 52 52 53 53 53 53 55 55 48 43
29 31 31 33 32 33 33 36 38 39 38 35 33 37 39 40 41 36 37 40 43 38 39 39 40 40 41 43 46 50 49 47 31 28 33 37 40 45 48 49 50 52 52 52 52 51 50 49 50 52 53 53 50 43
21 26 24 19 26 28 26 24 26 28 32 32 35 37 36 36 36 37 39 41 37 36 37 38 40 39 39 41 44 46 47 41 38 41 44 47 49 50 54 53 53 54 55 55 55 53 49 46 48 49 49 47 46 43
33 33 28 19 15 13 16 23 23 24 30 27 26 26 28 29 35 36 35 37 36 36 38 39 41 42 44 46 46 46 46 45 44 43 45 48 50 53 54 55 56 57 57 57 57 55 49 44 42 42 43 42 41 39
33 28 25 20 22 24 20 21 22 24 26 27 29 24 22 22 30 37 39 41 42 43 43 45 45 45 45 45 45 45 46 46 45 45 45 46 47 49 52 54 55 55 55 54 53 50 45 42 40 39 39 38 38 37
36 32 30 30 29 28 18 20 21 26 28 27 28 26 24 26 25 37 45 46 46 47 46 44 41 41 45 43 39 39 41 44 45 46 47 47 47 48 49 50 51 50 49 49 47 45 41 38 36 35 34 34 34 34
44 43 39 36 32 28 26 27 28 33 35 33 34 33 35 35 36 38 40 44 44 47 48 46 41 38 40 41 40 41 42 43 40 41 44 45 46 46 46 47 46 44 43 42 41 39 38 36 35 34 34 34 35 35
Wind_Direction
203 200 200 203 206 211 215 212 206 212 221 231 239 243 245 249 252 254 265 263 264 268 274 285 280 272 286 296 283 277 277 272 273 260 265 265 251 246 250 263 265 265 267 277 274 260 253 311 315 293 296 326 6 27
188 194 198 203 206 211 211 204 203 207 223 236 242 244 247 250 247 249 261 270 267 265 275 289 266 265 276 275 276 262 261 273 276 269 257 269 254 259 261 258 268 259 285 280 288 280 299 295 298 295 322 338 13 24
181 185 191 197 203 204 192 191 200 216 231 239 243 239 242 245 243 249 263 269 269 267 272 262 260 273 261 278 268 268 266 276 269 272 271 276 274 277 266 256 275 274 284 283 292 297 290 290 301 302 321 347 33 61
184 188 197 200 197 190 188 184 200 220 232 239 241 236 235 232 233 246 258 264 266 280 259 258 265 260 264 282 275 273 282 287 282 278 273 274 276 279 272 275 270 283 290 287 286 292 294 284 291 309 344 30 51 57
163 182 196 204 196 184 199 208 220 225 233 230 229 224 223 233 243 252 256 259 261 264 254 249 263 264 266 268 285 294 280 275 285 283 284 282 284 284 278 282 281 289 288 287 290 292 293 289 288 338 47 61 70 74
145 170 192 183 196 202 208 215 206 225 231 225 221 219 231 245 251 253 255 260 262 252 249 243 262 266 275 298 284 83 4 317 324 303 287 289 288 278 274 277 290 287 298 297 293 305 273 302 322 345 61 84 85 82
122 192 198 197 195 197 208 209 219 227 226 222 220 223 232 246 241 239 255 258 228 238 243 250 258 264 277 275 292 320 321 316 299 291 274 278 274 278 275 275 298 286 288 282 313 321 300 310 308 87 86 88 81 72
194 196 192 195 195 199 200 203 225 225 221 215 229 228 229 230 234 232 219 226 231 248 253 255 259 249 263 265 301 316 330 311 301 299 285 274 278 287 270 290 299 298 295 300 291 291 324 1 81 76 87 96 90 85
199 200 196 192 179 175 129 217 219 210 212 227 223 218 224 235 230 226 232 230 243 254 252 255 242 234 255 271 305 314 308 283 291 278 281 283 270 261 267 277 293 320 291 312 305 329 18 85 101 105 108 106 99 93
209 191 179 174 170 183 221 212 212 216 224 220 219 227 229 225 233 231 237 239 240 251 263 258 250 244 256 272 291 294 289 279 279 273 281 267 255 260 265 279 312 347 326 348 328 329 9 89 120 125 125 111 101 101
194 180 164 151 151 195 210 214 217 212 220 221 220 230 214 216 239 248 244 243 247 257 261 255 250 255 273 272 280 292 282 279 266 272 275 276 271 270 270 286 298 320 354 318 305 324 29 114 126 125 118 106 96 100
192 141 125 102 129 197 210 218 221 219 229 225 215 224 228 246 253 247 241 250 256 254 264 254 257 267 279 288 288 283 284 282 277 287 291 280 285 284 288 287 293 310 333 319 323 343 49 107 120 115 106 98 98 98
116 100 97 107 140 220 231 243 244 239 221 228 236 243 245 262 246 239 236 247 256 263 264 258 262 278 282 297 293 285 286 285 301 297 295 298 295 299 306 301 302 298 305 310 318 334 31 79 90 99 93 77 89 96
95 97 97 90 256 263 254 244 228 227 235 239 239 240 249 250 251 255 254 256 270 263 256 270 278 281 288 288 289 288 291 294 294 294 290 302 298 299 313 315 322 315 312 313 321 330 333 326 339 352 58 76 84 105
85 78 68 267 245 235 229 231 226 242 249 246 250 253 253 262 274 278 274 272 269 264 269 275 288 287 286 293 295 300 296 294 297 296 296 302 302 317 328 326 324 333 329 319 327 327 314 309 317 331 352 30 48 68
82 161 222 222 220 218 220 226 240 240 252 257 267 266 264 268 270 278 279 269 277 274 283 289 280 283 286 297 293 294 299 295 305 308 307 307 310 316 326 332 332 342 343 333 329 322 317 315 317 323 332 347 358 3
192 190 204 216 208 221 230 240 248 260 262 262 269 280 285 283 270 273 274 272 278 272 269 279 278 282 295 294 294 302 300 306 310 309 313 314 313 315 321 323 319 319 318 315 312 311 307 308 313 315 318 327 330 333
182 186 208 211 216 219 235 258 266 276 274 276 278 278 279 282 273 277 281 282 280 283 286 284 296 289 292 295 299 307 311 312 313 312 314 317 320 320 318 321 319 317 312 308 308 310 309 308 306 307 313 319 323 324
206 209 199 204 217 233 267 271 276 276 276 276 278 277 281 281 289 289 291 297 303 304 302 296 293 291 294 300 302 308 312 315 316 317 318 322 323 323 322 322 321 317 314 311 311 312 313 312 310 313 316 317 314 317
175 253 232 249 241 284 298 296 280 310 286 287 289 290 289 288 283 294 306 304 304 299 297 295 295 297 303 303 306 309 312 314 317 319 323 329 329 326 323 322 321 321 319 317 316 317 317 315 314 314 313 313 313 314
192 196 228 202 231 329 334 315 319 314 327 316 306 308 307 308 307 301 299 295 302 300 300 309 311 317 321 325 325 324 321 326 322 318 316 317 323 328 327 326 325 321 317 315 313 312 313 312 315 316 315 315 315 315
166 212 53 325 20 2 345 298 317 306 310 312 317 318 317 312 309 307 305 312 308 307 307 309 311 314 318 318 319 324 321 322 324 324 323 319 314 314 316 319 320 316 317 318 318 315 314 315 317 319 318 318 318 317
272 287 309 308 5 341 332 276 312 301 310 303 301 308 309 309 307 310 315 318 320 320 319 318 318 324 323 321 321 321 322 319 317 316 315 315 316 318 315 315 315 314 314 314 315 314 314 317 318 318 319 320 321 320
313 320 330 333 330 334 295 305 298 304 303 296 296 297 297 301 303 309 309 309 311 315 317 317 317 314 316 316 313 311 312 314 313 314 316 314 313 313 315 314 313 311 310 312 315 315 316 316 318 317 316 316 318 319
323 318 322 319 317 313 308 303 298 300 298 299 298 297 301 304 299 300 303 304 307 310 312 315 317 319 317 316 316 317 322 320 315 313 318 319 318 320 323 326 326 323 319 315 314 315 317 319 321 320 319 318 315 316
313 313 313 310 310 307 303 301 298 297 298 297 299 304 307 306 298 297 309 312 314 315 314 314 315 315 315 316 314 315 315 317 318 320 323 325 325 323 321 320 319 318 323 323 321 320 320 321 320 320 320 320 319 318
324 323 324 326 318 313 306 304 304 299 297 298 300 303 305 300 300 309 320 321 320 320 321 324 322 321 319 319 320 321 321 322 321 323 332 335 336 334 331 325 322 321 322 323 323 322 320 320 321 322 322 321 320 321
359 349 340 335 337 330 321 312 304 300 300 302 302 299 302 302 306 316 319 319 319 328 332 333 335 335 332 330 329 326 325 325 336 340 338 338 339 337 333 330 327 325 324 324 323 323 324 324 324 324 324 323 325 328
76 24 21 27 355 345 345 344 338 331 319 310 304 303 308 313 315 315 318 320 327 328 326 326 326 331 334 335 335 334 333 332 326 322 320 319 320 322 326 327 327 327 326 323 323 323 323 325 327 329 331 333 334 335
356 356 9 48 78 89 35 355 355 353 334 331 333 335 329 325 314 316 318 320 325 327 324 324 323 324 323 322 323 325 330 332 333 329 324 322 321 321 322 323 323 324 325 325 324 323 326 327 330 333 337 340 342 344
353 359 3 15 12 9 24 27 17 358 350 343 336 342 344 344 326 316 317 315 315 315 315 315 319 324 326 327 329 329 329 336 338 337 334 331 329 327 326 326 327 328 329 330 331 332 334 334 335 337 340 342 345 347
337 339 341 340 341 343 360 356 354 341 337 336 334 339 343 340 340 321 313 314 315 316 320 325 329 330 329 331 334 336 335 334 334 335 334 333 333 333 333 334 335 336 337 339 340 343 345 346 348 349 352 354 356 358
322 322 323 326 331 335 335 331 330 326 322 323 321 323 320 321 320 322 323 326 325 323 322 324 327 331 332 332 333 334 334 336 339 340 339 338 338 339 340 341 343 345 348 350 352 354 358 1 2 3 3 2 1 360